Owatonna, MN

10:08 AM CDT on March 24, 2017 (GMT -0500)
Owatonna Degner Regional

Weather History for KOWA - November, 2012

Change the Weather History Date:

Friday, November 16, 2012

  Actual Average Record
Temperature  
Mean Temperature 32 °F -  
Max Temperature 48 °F 44 °F 66 °F (2001)
Min Temperature 17 °F 23 °F 3 °F (1997)
Degree Days  
Heating Degree Days 32    
Moisture  
Dew Point 16 °F    
Average Humidity 50    
Maximum Humidity 73    
Minimum Humidity 22    
Precipitation  
Precipitation 0.00 in - - ()
Sea Level Pressure  
Sea Level Pressure 30.40 in    
Wind  
Wind Speed 2 mph (SE)    
Max Wind Speed 15 mph    
Max Gust Speed -    
Visibility 10 miles    
Events      
Averages and records for this station are not official NWS values.
T = Trace of Precipitation, MM = Missing Value Source: NWS Daily Summary

Daily Weather History Graph

Daily Weather History Graph

Search for Another Location

Airport or City:

Trip Planner

Search our weather history database for the weather conditions in past years. The results will help you decide how hot, cold, wet, or windy it might be!

Date:

Astronomy

Nov. 16, 2012 Rise Set
Actual Time 7:10 AM CST 4:45 PM CST
Civil Twilight 6:38 AM CST 5:16 PM CST
Nautical Twilight 6:03 AM CST 5:51 PM CST
Astronomical Twilight 5:29 AM CST 6:25 PM CST
Moon 10:07 AM CST (11/16) 7:44 PM CST (11/16)
Length of Visible Light 10h 37m
Length of Day
9h 34m
Waxing Crescent, 12% of the Moon is Illuminated
Nov 16
Waxing Crescent
Nov 20
First Quarter
Nov 28
Full
Dec 6
Last Quarter
Dec 13
New

Hourly Weather History & Observations

Time (CST) Temp. Windchill Dew Point Humidity Pressure Visibility Wind Dir Wind Speed Gust Speed Precip Events Conditions
12:13 AM 26.6 °F - 15.8 °F 64% 30.42 in 10.0 mi Calm Calm - N/A   Clear
12:34 AM 26.6 °F - 15.8 °F 64% 30.43 in 10.0 mi Calm Calm - N/A   Clear
12:54 AM 26.6 °F - 15.8 °F 64% 30.43 in 10.0 mi Calm Calm - N/A   Clear
1:14 AM 26.6 °F - 15.8 °F 64% 30.44 in 10.0 mi Calm Calm - N/A   Clear
1:34 AM 26.6 °F - 15.8 °F 64% 30.44 in 10.0 mi Calm Calm - N/A   Clear
1:54 AM 26.6 °F - 14.0 °F 59% 30.44 in 10.0 mi Calm Calm - N/A   Clear
2:14 AM 24.8 °F - 14.0 °F 64% 30.44 in 10.0 mi Calm Calm - N/A   Clear
2:33 AM 24.8 °F - 14.0 °F 64% 30.45 in 10.0 mi Calm Calm - N/A   Clear
2:54 AM 23.0 °F - 12.2 °F 63% 30.44 in 10.0 mi Calm Calm - N/A   Clear
3:14 AM 21.2 °F - 12.2 °F 68% 30.44 in 10.0 mi Calm Calm - N/A   Clear
3:33 AM 21.2 °F - 12.2 °F 68% 30.44 in 10.0 mi Calm Calm - N/A   Clear
3:54 AM 21.2 °F - 12.2 °F 68% 30.44 in 10.0 mi Calm Calm - N/A   Clear
4:14 AM 21.2 °F - 12.2 °F 68% 30.44 in 10.0 mi Calm Calm - N/A   Clear
4:34 AM 24.8 °F - 12.2 °F 59% 30.43 in 10.0 mi Calm Calm - N/A   Clear
4:53 AM 24.8 °F - 10.4 °F 54% 30.43 in 10.0 mi Calm Calm - N/A   Clear
5:14 AM 21.2 °F - 10.4 °F 63% 30.43 in 10.0 mi Calm Calm - N/A   Clear
5:34 AM 21.2 °F - 10.4 °F 63% 30.43 in 10.0 mi Calm Calm - N/A   Clear
5:54 AM 21.2 °F - 10.4 °F 63% 30.43 in 10.0 mi Calm Calm - N/A   Clear
6:14 AM 21.2 °F - 10.4 °F 63% 30.43 in 10.0 mi Calm Calm - N/A   Clear
6:33 AM 19.4 °F - 8.6 °F 63% 30.43 in 10.0 mi Calm Calm - N/A   Clear
6:53 AM 19.4 °F - 10.4 °F 68% 30.43 in 10.0 mi Calm Calm - N/A   Clear
7:13 AM 17.6 °F - 10.4 °F 73% 30.43 in 10.0 mi Calm Calm - N/A   Clear
7:34 AM 19.4 °F - 10.4 °F 68% 30.43 in 10.0 mi Calm Calm - N/A   Clear
7:53 AM 23.0 °F - 10.4 °F 59% 30.44 in 10.0 mi Calm Calm - N/A   Clear
8:14 AM 24.8 °F - 15.8 °F 69% 30.44 in 10.0 mi Calm Calm - N/A   Clear
8:34 AM 28.4 °F - 15.8 °F 59% 30.45 in 10.0 mi Calm Calm - N/A   Clear
8:53 AM 30.2 °F 25.4 °F 15.8 °F 55% 30.45 in 10.0 mi East 4.6 mph - N/A   Clear
9:15 AM 33.8 °F 28.6 °F 15.8 °F 48% 30.45 in 10.0 mi East 5.8 mph - N/A   Clear
9:34 AM 35.6 °F 31.7 °F 15.8 °F 44% 30.45 in 10.0 mi East 4.6 mph - N/A   Clear
9:54 AM 37.4 °F 34.9 °F 15.8 °F 41% 30.45 in 10.0 mi ESE 3.5 mph - N/A   Clear
10:14 AM 37.4 °F - 15.8 °F 41% 30.45 in 10.0 mi Calm Calm - N/A   Clear
10:34 AM 39.2 °F 37.0 °F 15.8 °F 39% 30.45 in 10.0 mi SE 3.5 mph - N/A   Clear
10:54 AM 41.0 °F 39.0 °F 15.8 °F 36% 30.45 in 10.0 mi SSE 3.5 mph - N/A   Clear
11:14 AM 42.8 °F - 15.8 °F 34% 30.45 in 10.0 mi Calm Calm - N/A   Clear
11:34 AM 42.8 °F - 15.8 °F 34% 30.44 in 10.0 mi Calm Calm - N/A   Clear
11:54 AM 44.6 °F 41.4 °F 15.8 °F 31% 30.44 in 10.0 mi SW 5.8 mph - N/A   Clear
12:14 PM 44.6 °F - 15.8 °F 31% 30.44 in 10.0 mi Calm Calm - N/A   Clear
12:34 PM 44.6 °F 41.4 °F 12.2 °F 27% 30.43 in 10.0 mi WSW 5.8 mph - N/A   Clear
12:53 PM 46.4 °F 43.5 °F 10.4 °F 23% 30.42 in 10.0 mi SSW 5.8 mph - N/A   Clear
1:14 PM 46.4 °F 44.3 °F 12.2 °F 25% 30.40 in 10.0 mi SSE 4.6 mph - N/A   Clear
1:34 PM 46.4 °F - 10.4 °F 23% 30.40 in 10.0 mi Calm Calm - N/A   Clear
1:54 PM 48.2 °F - 10.4 °F 22% 30.39 in 10.0 mi Calm Calm - N/A   Clear
2:14 PM 48.2 °F - 10.4 °F 22% 30.39 in 10.0 mi South 4.6 mph - N/A   Clear
2:34 PM 48.2 °F - 10.4 °F 22% 30.38 in 10.0 mi SSE 4.6 mph - N/A   Clear
2:54 PM 48.2 °F - 12.2 °F 24% 30.38 in 10.0 mi SE 3.5 mph - N/A   Clear
3:14 PM 48.2 °F - 12.2 °F 24% 30.38 in 10.0 mi SE 4.6 mph - N/A   Clear
3:33 PM 48.2 °F - 14.0 °F 25% 30.38 in 10.0 mi SSE 4.6 mph - N/A   Clear
3:54 PM 46.4 °F 42.9 °F 15.8 °F 29% 30.37 in 10.0 mi SSE 6.9 mph - N/A   Clear
4:14 PM 46.4 °F 42.9 °F 17.6 °F 32% 30.35 in 10.0 mi SSE 6.9 mph - N/A   Clear
4:34 PM 46.4 °F 43.5 °F 17.6 °F 32% 30.35 in 10.0 mi SSE 5.8 mph - N/A   Clear
4:54 PM 42.8 °F 39.3 °F 19.4 °F 39% 30.34 in 10.0 mi SE 5.8 mph - N/A   Clear
5:14 PM 42.8 °F 41.1 °F 19.4 °F 39% 30.34 in 10.0 mi SE 3.5 mph - N/A   Clear
5:34 PM 39.2 °F 35.9 °F 19.4 °F 45% 30.34 in 10.0 mi SE 4.6 mph - N/A   Clear
5:54 PM 39.2 °F 33.6 °F 21.2 °F 49% 30.34 in 10.0 mi SE 8.1 mph - N/A   Clear
6:14 PM 39.2 °F 34.2 °F 21.2 °F 49% 30.34 in 10.0 mi SE 6.9 mph - N/A   Clear
6:34 PM 37.4 °F 32.1 °F 21.2 °F 52% 30.33 in 10.0 mi SE 6.9 mph - N/A   Clear
6:54 PM 37.4 °F 31.4 °F 21.2 °F 52% 30.33 in 10.0 mi SE 8.1 mph - N/A   Clear
7:14 PM 37.4 °F 30.8 °F 23.0 °F 56% 30.32 in 10.0 mi SE 9.2 mph - N/A   Clear
7:53 PM 37.4 °F 30.8 °F 23.0 °F 56% 30.32 in 10.0 mi SE 9.2 mph - N/A   Clear
8:14 PM 39.2 °F 33.6 °F 24.8 °F 56% 30.31 in 10.0 mi SE 8.1 mph - N/A   Clear
8:34 PM 39.2 °F 34.2 °F 24.8 °F 56% 30.32 in 10.0 mi SSE 6.9 mph - N/A   Clear
8:54 PM 39.2 °F 33.0 °F 26.6 °F 61% 30.32 in 10.0 mi SSE 9.2 mph - N/A   Clear
9:13 PM 39.2 °F 32.0 °F 26.6 °F 61% 30.32 in 10.0 mi SSE 11.5 mph - N/A   Clear
9:54 PM 39.2 °F 32.0 °F 26.6 °F 61% 30.32 in 10.0 mi SSE 11.5 mph - N/A   Clear
10:14 PM 41.0 °F 33.9 °F 26.6 °F 57% 30.32 in 10.0 mi SSE 12.7 mph - N/A   Clear
10:33 PM 41.0 °F 33.5 °F 26.6 °F 57% 30.32 in 10.0 mi SSE 13.8 mph - N/A   Clear
10:54 PM 41.0 °F 33.5 °F 28.4 °F 61% 30.31 in 10.0 mi SSE 13.8 mph - N/A   Clear
11:14 PM 41.0 °F 33.1 °F 28.4 °F 61% 30.32 in 10.0 mi SSE 15.0 mph - N/A   Clear
11:33 PM 41.0 °F 33.5 °F 28.4 °F 61% 30.32 in 10.0 mi SSE 13.8 mph - N/A   Clear
11:54 PM 41.0 °F 33.9 °F 28.4 °F 61% 30.32 in 10.0 mi SSE 12.7 mph - N/A   Clear